This is the latest recevied weather packets stored in our database for station/object K5NAN. If no packets are shown the sender has not sent any weather packets the latest 10 day(s).
| Time | Temp. | Humidity | Pressure | Rain* | Wind** | Luminosity | Snow |
|---|---|---|---|---|---|---|---|
| 1777560560 | 16.67° C | 82% | 1013.4 hPa | 0 mm | - | 212 W/m² | - |
| 1777559655 | 16.67° C | 85% | 1013.1 hPa | 0 mm | - | 155 W/m² | - |
| 1777557833 | 16.11° C | 88% | 1012.9 hPa | 0 mm | - | 172 W/m² | - |
| 1777557530 | 16.11° C | 89% | 1013.1 hPa | 0 mm | - | 131 W/m² | - |
| 1777557226 | 15.56° C | 89% | 1013.4 hPa | 0 mm | - | 127 W/m² | - |
| 1777556618 | 15.56° C | 90% | 1013 hPa | 0 mm | - | 120 W/m² | - |
| 1777554801 | 15.56° C | 94% | 1013.1 hPa | 0 mm | - | 96 W/m² | - |
| 1777552377 | 14.44° C | 95% | 1013.1 hPa | 0 mm | - | 42 W/m² | - |
| 1777551770 | 14.44° C | 95% | 1012.9 hPa | 0 mm | - | 32 W/m² | - |
| 1777551467 | 14.44° C | 95% | 1012.8 hPa | 0 mm | - | 29 W/m² | - |
| 1777550862 | 13.89° C | 95% | 1012.5 hPa | 0 mm | - | 27 W/m² | - |
| 1777550558 | 13.89° C | 95% | 1012.6 hPa | 0 mm | - | 24 W/m² | - |
| 1777549647 | 13.89° C | 94% | 1012.5 hPa | 0 mm | - | 8 W/m² | - |
| 1777548434 | 13.89° C | 94% | 1012.4 hPa | 0 mm | - | 0 W/m² | - |
| 1777548130 | 13.89° C | 93% | 1012.7 hPa | 0 mm | - | 0 W/m² | - |
| 1777547826 | 13.89° C | 93% | 1012.4 hPa | 0 mm | - | 0 W/m² | - |
| 1777547522 | 14.44° C | 93% | 1012.5 hPa | 0 mm | - | 0 W/m² | - |
| 1777546917 | 14.44° C | 93% | 1012.7 hPa | 0 mm | - | 0 W/m² | - |
| 1777546614 | 14.44° C | 93% | 1012.9 hPa | 0 mm | - | 0 W/m² | - |
| 1777546310 | 14.44° C | 93% | 1012.9 hPa | 0 mm | - | 0 W/m² | - |
| 1777545401 | 14.44° C | 94% | 1012.7 hPa | 0 mm | - | 0 W/m² | - |
| 1777545098 | 14.44° C | 94% | 1012.8 hPa | 0 mm | - | 0 W/m² | - |
| 1777544795 | 14.44° C | 94% | 1012.6 hPa | 0 mm | - | 0 W/m² | - |
| 1777544490 | 14.44° C | 94% | 1012.9 hPa | 0 mm | - | 0 W/m² | - |
| 1777544187 | 14.44° C | 94% | 1012.8 hPa | 0 mm | - | 0 W/m² | - |
* Rain latest hour (hover to see other rain measurements)
** Current wind speed in m/s (hover to see current wind gust speed)